Location: Binningen
(47.7924°N, 8.7261°E)
Time: 01:12:32
(UTC+00:00)

Terra - Pass Details

Date: 02 October 2021
Orbit: 701 x 703 km, 98.2° (Epoch: 24 October)

Event Time Altitude Azimuth Distance (km) Brightness Sun altitude
Exits shadow 19:57:52 12° 21° (NNE) 2,025 4.3 -29.3°
Drops below altitude 10° 19:58:27 10° 16° (NNE) 2,181 4.5 -29.4°
Sets 20:01:15 0° 359° (N) 3,104 5.6 -29.8°
